Terminal Aerodrome Forecast
Issued by NWS Grand Forks, ND

Home | Current Version | Previous Version | Graphics & Text | Print | Product List | Glossary On
Versions: 1 2 3 4 5 6 7 8 9 10 11 12 13 14 15 16 17 18 19 20 21 22 23 24 25 26
082
FTUS43 KFGF 111830 AAA
TAFFAR
TAF AMD
KFAR 111830Z 1119/1218 34026G40KT P6SM BKN015 OVC020
      TEMPO 1119/1121 2SM -SN BLSN OVC015
     FM112100 34022G32KT P6SM BKN025
     FM112300 34019KT P6SM SCT030
     FM120400 34008KT P6SM SCT250
     FM121100 22004KT P6SM BKN025=

USA.gov is the U.S. government's official web portal to all federal, state and local government web resources and services.